Location: Asheville, NC
(35.6000°N, 82.5500°W)
Time: 02:56:59
(UTC-05:00)

NUDT-PHONESAT - Pass Details

Date: 10 January 2018
Orbit: 494 x 513 km, 97.4° (Epoch: 21 January)

Event Time Altitude Azimuth Distance (km) Brightness Sun altitude
Rises 06:59:14 0° 7° (N) 2,606 ? -8.4°
Reaches altitude 10° 07:01:21 10° 5° (N) 1,714 ? -8.0°
Maximum altitude 07:04:59 63° 284° (WNW) 563 ? -7.3°
Drops below altitude 10° 07:08:35 10° 203° (SSW) 1,691 ? -6.7°
Sets 07:10:39 0° 200° (SSW) 2,566 ? -6.3°
